START_TIME,STEP,MOV.,M35,t_acc.,PL05,t_acc.,PL06,t_acc.,PL07,t_acc.
1979-08-05 18:05:00.320 ,0,0,,0,,0,,0,,0
1979-08-05 18:05:05.120 ,0,0,,0,,0,,0,,0
1979-08-05 18:05:09.920 ,0,0,,0,,0,,0,,0
1979-08-05 18:05:14.720 ,0,0,0.,4.8,3.,4.8,0.,4.8,0.,4.8
1979-08-05 18:05:19.520 ,0,0,0.,4.8,0.,4.8,1.,4.8,1.,4.8
1979-08-05 18:05:10.520 ,0,1,0.,4.8,1.,4.8,2.,4.8,0.,4.8
1979-08-05 18:05:15.320 ,0,1,0.,4.8,1.,4.8,1.,4.8,0.,4.8
1979-08-05 18:05:20.120 ,0,1,0.,4.8,5.,4.8,3.,4.8,1.,4.8
1979-08-05 18:05:24.920 ,0,1,0.,4.8,4.,4.8,3.,4.8,0.,4.8
1979-08-05 18:05:29.720 ,0,1,,0,,0,,0,,0
1979-08-05 18:05:35.120 ,0,0,0.,4.8,7.,4.8,1.,4.8,6.,4.8
1979-08-05 18:05:39.920 ,0,0,0.,4.8,3.,4.8,1.,4.8,2.,4.8
1979-08-05 18:05:44.720 ,0,0,0.,4.8,1.,4.8,3.,4.8,0.,4.8
1979-08-05 18:05:49.520 ,0,0,0.,4.8,1.,4.8,0.,4.8,1.,4.8
1979-08-05 18:05:54.320 ,0,0,0.,4.8,2.,4.8,2.,4.8,0.,4.8
1979-08-05 18:05:58.520 ,0,0,0.,4.8,3.,4.8,0.,4.8,1.,4.8
1979-08-05 18:06:03.320 ,0,0,0.,4.8,2.,4.8,0.,4.8,0.,4.8
1979-08-05 18:06:08.120 ,0,0,0.,4.8,7.,4.8,0.,4.8,0.,4.8
1979-08-05 18:06:12.920 ,0,0,0.,4.8,2.,4.8,1.,4.8,0.,4.8
1979-08-05 18:06:17.720 ,0,0,0.,4.8,0.,4.8,1.,4.8,1.,4.8
1979-08-05 18:06:22.520 ,5,0,0.,4.8,2.,4.8,0.,4.8,0.,4.8
1979-08-05 18:06:27.320 ,5,0,0.,4.8,4.,4.8,2.,4.8,1.,4.8
1979-08-05 18:06:32.120 ,5,0,0.,4.8,5.,4.8,0.,4.8,1.,4.8
1979-08-05 18:06:36.920 ,5,0,0.,4.8,4.,4.8,0.,4.8,1.,4.8
1979-08-05 18:06:41.720 ,5,0,0.,4.8,5.,4.8,1.,4.8,0.,4.8
1979-08-05 18:06:46.520 ,5,0,0.,4.8,9.,4.8,2.,4.8,3.,4.8
1979-08-05 18:06:51.320 ,5,0,0.,4.8,7.,4.8,0.,4.8,0.,4.8
1979-08-05 18:06:56.120 ,5,0,0.,4.8,5.,4.8,1.,4.8,0.,4.8
1979-08-05 18:07:00.920 ,5,0,0.,4.8,0.,4.8,1.,4.8,1.,4.8
1979-08-05 18:07:05.720 ,5,0,0.,4.8,1.,4.8,0.,4.8,0.,4.8
1979-08-05 18:07:10.520 ,4,0,0.,4.8,4.,4.8,1.,4.8,1.,4.8
1979-08-05 18:07:15.320 ,4,0,0.,4.8,6.,4.8,0.,4.8,1.,4.8
1979-08-05 18:07:20.120 ,4,0,0.,4.8,4.,4.8,0.,4.8,0.,4.8
1979-08-05 18:07:24.920 ,4,0,0.,4.8,3.,4.8,1.,4.8,2.,4.8
1979-08-05 18:07:29.720 ,4,0,0.,4.8,4.,4.8,1.,4.8,0.,4.8
1979-08-05 18:07:34.520 ,4,0,0.,4.8,0.,4.8,2.,4.8,0.,4.8
1979-08-05 18:07:39.320 ,4,0,0.,4.8,2.,4.8,2.,4.8,0.,4.8
1979-08-05 18:07:44.120 ,4,0,0.,4.8,4.,4.8,0.,4.8,0.,4.8
1979-08-05 18:07:48.920 ,4,0,0.,4.8,5.,4.8,1.,4.8,0.,4.8
1979-08-05 18:07:53.720 ,4,0,0.,4.8,3.,4.8,1.,4.8,0.,4.8
1979-08-05 18:07:58.520 ,3,0,0.,4.8,1.,4.8,1.,4.8,1.,4.8
1979-08-05 18:08:03.320 ,3,0,0.,4.8,2.,4.8,1.,4.8,1.,4.8
1979-08-05 18:08:08.120 ,3,0,0.,4.8,1.,4.8,0.,4.8,0.,4.8
1979-08-05 18:08:12.920 ,3,0,0.,4.8,2.,4.8,0.,4.8,1.,4.8
1979-08-05 18:08:17.720 ,3,0,0.,4.8,2.,4.8,0.,4.8,1.,4.8
1979-08-05 18:08:22.520 ,3,0,0.,4.8,3.,4.8,0.,4.8,2.,4.8
1979-08-05 18:08:27.320 ,3,0,0.,4.8,4.,4.8,0.,4.8,1.,4.8
1979-08-05 18:08:32.120 ,3,0,0.,4.8,6.,4.8,1.,4.8,2.,4.8
1979-08-05 18:08:36.920 ,3,0,0.,4.8,2.,4.8,2.,4.8,0.,4.8
1979-08-05 18:08:41.720 ,3,0,0.,4.8,0.,4.8,0.,4.8,0.,4.8
1979-08-05 18:08:46.520 ,2,0,0.,4.8,2.,4.8,0.,4.8,0.,4.8
1979-08-05 18:08:51.320 ,2,0,0.,4.8,3.,4.8,0.,4.8,0.,4.8
1979-08-05 18:08:56.120 ,2,0,0.,4.8,6.,4.8,0.,4.8,1.,4.8
1979-08-05 18:09:00.920 ,2,0,0.,4.8,4.,4.8,1.,4.8,1.,4.8
1979-08-05 18:09:05.720 ,2,0,0.,4.8,4.,4.8,0.,4.8,1.,4.8
1979-08-05 18:09:10.520 ,2,0,0.,4.8,1.,4.8,3.,4.8,0.,4.8
1979-08-05 18:09:15.320 ,2,0,0.,4.8,1.,4.8,4.,4.8,0.,4.8
1979-08-05 18:09:20.120 ,2,0,0.,4.8,1.,4.8,0.,4.8,1.,4.8
1979-08-05 18:09:24.920 ,2,0,0.,4.8,4.,4.8,0.,4.8,0.,4.8
1979-08-05 18:09:29.720 ,2,0,0.,4.8,5.,4.8,0.,4.8,1.,4.8
1979-08-05 18:09:34.520 ,1,0,0.,4.8,4.,4.8,2.,4.8,1.,4.8
1979-08-05 18:09:39.320 ,1,0,0.,4.8,1.,4.8,2.,4.8,1.,4.8
1979-08-05 18:09:44.120 ,1,0,0.,4.8,6.,4.8,1.,4.8,1.,4.8
1979-08-05 18:09:48.920 ,1,0,0.,4.8,5.,4.8,0.,4.8,0.,4.8
1979-08-05 18:09:53.720 ,1,0,0.,4.8,8.,4.8,2.,4.8,3.,4.8
1979-08-05 18:09:58.520 ,0,0,0.,4.8,2.,4.8,2.,4.8,1.,4.8
1979-08-05 18:10:03.320 ,0,0,0.,4.8,2.,4.8,0.,4.8,1.,4.8
1979-08-05 18:10:08.120 ,0,0,0.,4.8,4.,4.8,2.,4.8,2.,4.8
1979-08-05 18:10:12.920 ,0,0,0.,4.8,3.,4.8,2.,4.8,1.,4.8
1979-08-05 18:10:17.720 ,0,0,0.,4.8,5.,4.8,2.,4.8,0.,4.8
1979-08-05 18:10:22.520 ,0,0,0.,4.8,2.,4.8,0.,4.8,0.,4.8
1979-08-05 18:10:27.320 ,0,0,0.,4.8,3.,4.8,1.,4.8,0.,4.8
1979-08-05 18:10:32.120 ,0,0,0.,4.8,5.,4.8,2.,4.8,0.,4.8
1979-08-05 18:10:36.920 ,0,0,0.,4.8,2.,4.8,1.,4.8,1.,4.8
1979-08-05 18:10:41.720 ,0,0,0.,4.8,4.,4.8,1.,4.8,0.,4.8
1979-08-05 18:10:46.520 ,0,0,0.,4.8,3.,4.8,4.,4.8,1.,4.8
1979-08-05 18:10:51.320 ,0,0,0.,4.8,3.,4.8,3.,4.8,0.,4.8
1979-08-05 18:10:56.120 ,0,0,0.,4.8,1.,4.8,1.,4.8,1.,4.8
1979-08-05 18:11:00.920 ,0,0,0.,4.8,12.,4.8,2.,4.8,2.,4.8
1979-08-05 18:11:05.720 ,0,0,0.,4.8,4.,4.8,2.,4.8,0.,4.8
1979-08-05 18:11:10.520 ,0,0,0.,4.8,4.,4.8,2.,4.8,0.,4.8
1979-08-05 18:11:15.320 ,0,0,0.,4.8,2.,4.8,2.,4.8,1.,4.8
1979-08-05 18:11:20.120 ,0,0,0.,4.8,5.,4.8,2.,4.8,2.,4.8
1979-08-05 18:11:24.920 ,0,0,0.,4.8,6.,4.8,1.,4.8,3.,4.8
1979-08-05 18:11:29.720 ,0,0,0.,4.8,12.,4.8,1.,4.8,2.,4.8
1979-08-05 18:11:34.520 ,0,0,0.,4.8,4.,4.8,3.,4.8,3.,4.8
1979-08-05 18:11:39.320 ,0,0,0.,4.8,1.,4.8,0.,4.8,0.,4.8
1979-08-05 18:11:44.120 ,0,0,0.,4.8,8.,4.8,0.,4.8,0.,4.8
1979-08-05 18:11:48.920 ,0,0,0.,4.8,5.,4.8,2.,4.8,1.,4.8
1979-08-05 18:11:53.720 ,0,0,0.,4.8,4.,4.8,2.,4.8,1.,4.8
1979-08-05 18:11:58.520 ,1,0,0.,4.8,7.,4.8,1.,4.8,1.,4.8
1979-08-05 18:12:03.320 ,1,0,,0,,0,,0,,0
1979-08-05 18:12:08.120 ,1,0,0.,4.8,6.,4.8,1.,4.8,3.,4.8
1979-08-05 18:12:12.920 ,1,0,0.,4.8,6.,4.8,2.,4.8,2.,4.8
1979-08-05 18:12:17.720 ,1,0,0.,4.8,3.,4.8,2.,4.8,0.,4.8
1979-08-05 18:12:22.520 ,1,0,0.,4.8,3.,4.8,3.,4.8,1.,4.8
1979-08-05 18:12:27.320 ,1,0,0.,4.8,0.,4.8,1.,4.8,0.,4.8
1979-08-05 18:12:32.120 ,1,0,0.,4.8,6.,4.8,1.,4.8,0.,4.8
1979-08-05 18:12:36.920 ,1,0,0.,4.8,5.,4.8,2.,4.8,0.,4.8
1979-08-05 18:12:41.720 ,1,0,0.,4.8,7.,4.8,4.,4.8,1.,4.8
1979-08-05 18:12:46.520 ,2,0,0.,4.8,4.,4.8,3.,4.8,2.,4.8
1979-08-05 18:12:51.320 ,2,0,0.,4.8,10.,4.8,0.,4.8,0.,4.8
1979-08-05 18:12:56.120 ,2,0,0.,4.8,4.,4.8,0.,4.8,1.,4.8
1979-08-05 18:13:00.920 ,2,0,0.,4.8,5.,4.8,2.,4.8,0.,4.8
1979-08-05 18:13:05.720 ,2,0,0.,4.8,3.,4.8,0.,4.8,0.,4.8
1979-08-05 18:13:10.520 ,2,0,0.,4.8,1.,4.8,1.,4.8,2.,4.8
1979-08-05 18:13:15.320 ,2,0,0.,4.8,1.,4.8,2.,4.8,1.,4.8
1979-08-05 18:13:20.120 ,2,0,0.,4.8,2.,4.8,1.,4.8,0.,4.8
1979-08-05 18:13:24.920 ,2,0,0.,4.8,5.,4.8,1.,4.8,3.,4.8
1979-08-05 18:13:29.720 ,2,0,0.,4.8,4.,4.8,5.,4.8,0.,4.8
1979-08-05 18:13:34.520 ,3,0,0.,4.8,6.,4.8,1.,4.8,0.,4.8
1979-08-05 18:13:39.320 ,3,0,0.,4.8,3.,4.8,2.,4.8,3.,4.8
1979-08-05 18:13:44.120 ,3,0,0.,4.8,1.,4.8,0.,4.8,0.,4.8
1979-08-05 18:13:48.920 ,3,0,0.,4.8,1.,4.8,3.,4.8,2.,4.8
1979-08-05 18:13:53.720 ,3,0,0.,4.8,6.,4.8,1.,4.8,0.,4.8
1979-08-05 18:13:58.520 ,3,0,0.,4.8,5.,4.8,0.,4.8,0.,4.8
1979-08-05 18:14:03.320 ,3,0,0.,4.8,3.,4.8,1.,4.8,0.,4.8
1979-08-05 18:14:08.120 ,3,0,0.,4.8,0.,4.8,1.,4.8,1.,4.8
1979-08-05 18:14:12.920 ,3,0,0.,4.8,4.,4.8,0.,4.8,0.,4.8
1979-08-05 18:14:17.720 ,3,0,0.,4.8,4.,4.8,0.,4.8,0.,4.8
1979-08-05 18:14:22.520 ,4,0,0.,4.8,2.,4.8,0.,4.8,1.,4.8
1979-08-05 18:14:27.320 ,4,0,0.,4.8,5.,4.8,1.,4.8,2.,4.8
1979-08-05 18:14:32.120 ,4,0,0.,4.8,2.,4.8,1.,4.8,0.,4.8
1979-08-05 18:14:36.920 ,4,0,0.,4.8,0.,4.8,1.,4.8,0.,4.8
1979-08-05 18:14:41.720 ,4,0,0.,4.8,3.,4.8,0.,4.8,1.,4.8
1979-08-05 18:14:46.520 ,4,0,0.,4.8,4.,4.8,1.,4.8,0.,4.8
1979-08-05 18:14:51.320 ,4,0,0.,4.8,4.,4.8,2.,4.8,0.,4.8
1979-08-05 18:14:56.120 ,4,0,0.,4.8,5.,4.8,0.,4.8,1.,4.8
1979-08-05 18:15:00.920 ,4,0,0.,4.8,1.,4.8,0.,4.8,1.,4.8
1979-08-05 18:15:05.720 ,4,0,0.,4.8,3.,4.8,0.,4.8,2.,4.8
1979-08-05 18:15:10.520 ,5,0,0.,4.8,3.,4.8,1.,4.8,1.,4.8
1979-08-05 18:15:15.320 ,5,0,0.,4.8,3.,4.8,1.,4.8,0.,4.8
1979-08-05 18:15:20.120 ,5,0,0.,4.8,3.,4.8,2.,4.8,0.,4.8
1979-08-05 18:15:24.920 ,5,0,0.,4.8,2.,4.8,2.,4.8,0.,4.8
1979-08-05 18:15:29.720 ,5,0,0.,4.8,1.,4.8,0.,4.8,0.,4.8
1979-08-05 18:15:34.520 ,5,0,0.,4.8,3.,4.8,0.,4.8,2.,4.8
1979-08-05 18:15:39.320 ,5,0,0.,4.8,4.,4.8,1.,4.8,1.,4.8
1979-08-05 18:15:44.120 ,5,0,0.,4.8,2.,4.8,1.,4.8,0.,4.8
1979-08-05 18:15:48.920 ,5,0,0.,4.8,7.,4.8,1.,4.8,4.,4.8
1979-08-05 18:15:53.720 ,5,0,0.,4.8,2.,4.8,1.,4.8,0.,4.8
1979-08-05 18:15:58.520 ,6,0,0.,4.8,3.,4.8,1.,4.8,2.,4.8
1979-08-05 18:16:03.320 ,6,0,0.,4.8,4.,4.8,1.,4.8,2.,4.8
1979-08-05 18:16:08.120 ,6,0,0.,4.8,3.,4.8,0.,4.8,1.,4.8
1979-08-05 18:16:12.920 ,6,0,0.,4.8,5.,4.8,0.,4.8,1.,4.8
1979-08-05 18:16:17.720 ,6,0,0.,4.8,2.,4.8,0.,4.8,2.,4.8
1979-08-05 18:16:22.520 ,6,0,0.,4.8,5.,4.8,6.,4.8,1.,4.8
1979-08-05 18:16:27.320 ,6,0,0.,4.8,7.,4.8,1.,4.8,0.,4.8
1979-08-05 18:16:32.120 ,6,0,0.,4.8,3.,4.8,1.,4.8,0.,4.8
1979-08-05 18:16:36.920 ,6,0,0.,4.8,4.,4.8,1.,4.8,0.,4.8
1979-08-05 18:16:41.720 ,6,0,0.,4.8,4.,4.8,2.,4.8,0.,4.8
1979-08-05 18:16:46.520 ,7,0,0.,4.8,2.,4.8,1.,4.8,3.,4.8
1979-08-05 18:16:51.320 ,7,0,0.,4.8,4.,4.8,1.,4.8,1.,4.8
1979-08-05 18:16:56.120 ,7,0,0.,4.8,0.,4.8,0.,4.8,0.,4.8
1979-08-05 18:17:00.920 ,7,0,0.,4.8,0.,4.8,0.,4.8,1.,4.8
1979-08-05 18:17:05.720 ,7,0,0.,4.8,1.,4.8,0.,4.8,0.,4.8
1979-08-05 18:17:10.520 ,7,0,0.,4.8,1.,4.8,0.,4.8,0.,4.8
1979-08-05 18:17:15.320 ,7,0,0.,4.8,0.,4.8,0.,4.8,0.,4.8
1979-08-05 18:17:20.120 ,7,0,0.,4.8,0.,4.8,1.,4.8,0.,4.8
1979-08-05 18:17:24.920 ,7,0,0.,4.8,0.,4.8,0.,4.8,0.,4.8
1979-08-05 18:17:29.720 ,7,0,0.,4.8,0.,4.8,0.,4.8,0.,4.8
1979-08-05 18:17:34.520 ,7,0,0.,4.8,0.,4.8,0.,4.8,0.,4.8
1979-08-05 18:17:39.320 ,7,0,0.,4.8,0.,4.8,1.,4.8,0.,4.8
1979-08-05 18:17:44.120 ,7,0,0.,4.8,1.,4.8,0.,4.8,0.,4.8
1979-08-05 18:17:48.920 ,7,0,0.,4.8,3.,4.8,0.,4.8,0.,4.8
1979-08-05 18:17:53.720 ,7,0,0.,4.8,1.,4.8,0.,4.8,0.,4.8
1979-08-05 18:17:58.520 ,7,0,0.,4.8,0.,4.8,0.,4.8,0.,4.8
1979-08-05 18:18:03.320 ,7,0,0.,4.8,1.,4.8,1.,4.8,0.,4.8
1979-08-05 18:18:08.120 ,7,0,0.,4.8,0.,4.8,1.,4.8,0.,4.8
1979-08-05 18:18:12.920 ,7,0,0.,4.8,0.,4.8,1.,4.8,0.,4.8
1979-08-05 18:18:17.720 ,7,0,0.,4.8,1.,4.8,0.,4.8,0.,4.8
1979-08-05 18:18:22.520 ,6,0,0.,4.8,0.,4.8,0.,4.8,0.,4.8
1979-08-05 18:18:27.320 ,6,0,0.,4.8,3.,4.8,0.,4.8,0.,4.8
1979-08-05 18:18:32.120 ,6,0,0.,4.8,3.,4.8,3.,4.8,2.,4.8
1979-08-05 18:18:36.920 ,6,0,0.,4.8,5.,4.8,0.,4.8,0.,4.8
1979-08-05 18:18:41.720 ,6,0,0.,4.8,8.,4.8,3.,4.8,2.,4.8
1979-08-05 18:18:46.520 ,6,0,0.,4.8,6.,4.8,1.,4.8,1.,4.8
1979-08-05 18:18:51.320 ,6,0,0.,4.8,7.,4.8,3.,4.8,2.,4.8
1979-08-05 18:18:56.120 ,6,0,0.,4.8,2.,4.8,0.,4.8,1.,4.8
1979-08-05 18:19:00.920 ,6,0,0.,4.8,8.,4.8,3.,4.8,1.,4.8
1979-08-05 18:19:05.720 ,6,0,0.,4.8,4.,4.8,1.,4.8,0.,4.8
1979-08-05 18:19:10.520 ,5,0,,0,,0,,0,,0
1979-08-05 18:19:15.320 ,5,0,0.,4.8,3.,4.8,1.,4.8,0.,4.8
1979-08-05 18:19:20.120 ,5,0,0.,4.8,3.,4.8,1.,4.8,0.,4.8
1979-08-05 18:19:24.920 ,5,0,0.,4.8,4.,4.8,4.,4.8,0.,4.8
1979-08-05 18:19:29.720 ,5,0,0.,4.8,2.,4.8,2.,4.8,1.,4.8
1979-08-05 18:19:34.520 ,5,0,0.,4.8,1.,4.8,1.,4.8,2.,4.8
1979-08-05 18:19:39.320 ,5,0,0.,4.8,2.,4.8,5.,4.8,1.,4.8
1979-08-05 18:19:44.120 ,5,0,0.,4.8,2.,4.8,3.,4.8,2.,4.8
1979-08-05 18:19:48.920 ,5,0,0.,4.8,2.,4.8,2.,4.8,0.,4.8
1979-08-05 18:19:53.720 ,5,0,0.,4.8,3.,4.8,2.,4.8,0.,4.8
1979-08-05 18:19:58.520 ,4,0,0.,4.8,4.,4.8,2.,4.8,1.,4.8
1979-08-05 18:20:03.320 ,4,0,0.,4.8,3.,4.8,0.,4.8,0.,4.8
1979-08-05 18:20:08.120 ,4,0,0.,4.8,2.,4.8,1.,4.8,0.,4.8
1979-08-05 18:20:12.920 ,4,0,0.,4.8,3.,4.8,1.,4.8,0.,4.8
1979-08-05 18:20:17.720 ,4,0,0.,4.8,1.,4.8,1.,4.8,1.,4.8
1979-08-05 18:20:22.520 ,4,0,0.,4.8,2.,4.8,1.,4.8,1.,4.8
1979-08-05 18:20:27.320 ,4,0,0.,4.8,2.,4.8,3.,4.8,0.,4.8
1979-08-05 18:20:32.120 ,4,0,0.,4.8,4.,4.8,0.,4.8,0.,4.8
1979-08-05 18:20:36.920 ,4,0,0.,4.8,2.,4.8,0.,4.8,0.,4.8
1979-08-05 18:20:41.720 ,4,0,0.,4.8,1.,4.8,0.,4.8,0.,4.8
1979-08-05 18:20:46.520 ,3,0,0.,4.8,2.,4.8,0.,4.8,0.,4.8
1979-08-05 18:20:51.320 ,3,0,0.,4.8,2.,4.8,2.,4.8,1.,4.8
1979-08-05 18:20:56.120 ,3,0,0.,4.8,2.,4.8,0.,4.8,0.,4.8
1979-08-05 18:21:00.920 ,3,0,0.,4.8,0.,4.8,0.,4.8,1.,4.8
1979-08-05 18:21:05.720 ,3,0,0.,4.8,1.,4.8,0.,4.8,0.,4.8
1979-08-05 18:21:10.520 ,3,0,0.,4.8,1.,4.8,0.,4.8,0.,4.8
1979-08-05 18:21:15.320 ,3,0,0.,4.8,1.,4.8,1.,4.8,1.,4.8
1979-08-05 18:21:20.120 ,3,0,0.,4.8,1.,4.8,1.,4.8,0.,4.8
1979-08-05 18:21:24.920 ,3,0,0.,4.8,2.,4.8,1.,4.8,0.,4.8
1979-08-05 18:21:29.720 ,3,0,0.,4.8,2.,4.8,0.,4.8,0.,4.8
1979-08-05 18:21:34.520 ,2,0,0.,4.8,3.,4.8,1.,4.8,0.,4.8
1979-08-05 18:21:39.320 ,2,0,0.,4.8,2.,4.8,0.,4.8,1.,4.8
1979-08-05 18:21:44.120 ,2,0,0.,4.8,4.,4.8,1.,4.8,0.,4.8
1979-08-05 18:21:48.920 ,2,0,0.,4.8,1.,4.8,0.,4.8,2.,4.8
1979-08-05 18:21:53.720 ,2,0,0.,4.8,3.,4.8,0.,4.8,0.,4.8
1979-08-05 18:21:58.520 ,2,0,0.,4.8,3.,4.8,1.,4.8,0.,4.8
1979-08-05 18:22:03.320 ,2,0,0.,4.8,2.,4.8,0.,4.8,1.,4.8
1979-08-05 18:22:08.120 ,2,0,0.,4.8,4.,4.8,3.,4.8,1.,4.8
1979-08-05 18:22:12.920 ,2,0,0.,4.8,0.,4.8,2.,4.8,0.,4.8
1979-08-05 18:22:17.720 ,2,0,0.,4.8,5.,4.8,1.,4.8,0.,4.8
1979-08-05 18:22:22.520 ,1,0,0.,4.8,2.,4.8,1.,4.8,0.,4.8
1979-08-05 18:22:27.320 ,1,0,0.,4.8,3.,4.8,0.,4.8,0.,4.8
1979-08-05 18:22:32.120 ,1,0,0.,4.8,7.,4.8,0.,4.8,0.,4.8
1979-08-05 18:22:36.920 ,1,0,0.,4.8,2.,4.8,3.,4.8,2.,4.8
1979-08-05 18:22:41.720 ,1,0,0.,4.8,2.,4.8,2.,4.8,0.,4.8
1979-08-05 18:22:46.520 ,1,0,0.,4.8,5.,4.8,2.,4.8,1.,4.8
1979-08-05 18:22:51.320 ,1,0,0.,4.8,6.,4.8,1.,4.8,0.,4.8
1979-08-05 18:22:56.120 ,1,0,0.,4.8,3.,4.8,1.,4.8,1.,4.8
1979-08-05 18:23:00.920 ,1,0,0.,4.8,3.,4.8,0.,4.8,2.,4.8
1979-08-05 18:23:05.720 ,1,0,0.,4.8,4.,4.8,1.,4.8,1.,4.8
1979-08-05 18:23:10.520 ,0,0,0.,4.8,3.,4.8,4.,4.8,0.,4.8
1979-08-05 18:23:15.320 ,0,0,0.,4.8,5.,4.8,1.,4.8,1.,4.8
1979-08-05 18:23:20.120 ,0,0,0.,4.8,4.,4.8,3.,4.8,1.,4.8
1979-08-05 18:23:24.920 ,0,0,0.,4.8,6.,4.8,1.,4.8,0.,4.8
1979-08-05 18:23:29.720 ,0,0,0.,4.8,4.,4.8,0.,4.8,0.,4.8
1979-08-05 18:23:34.520 ,0,0,0.,4.8,2.,4.8,3.,4.8,3.,4.8
1979-08-05 18:23:39.320 ,0,0,0.,4.8,3.,4.8,3.,4.8,1.,4.8
1979-08-05 18:23:44.120 ,0,0,0.,4.8,4.,4.8,1.,4.8,2.,4.8
1979-08-05 18:23:48.920 ,0,0,0.,4.8,3.,4.8,3.,4.8,0.,4.8
1979-08-05 18:23:53.720 ,0,0,0.,4.8,6.,4.8,7.,4.8,2.,4.8
1979-08-05 18:23:58.520 ,0,0,0.,4.8,3.,4.8,2.,4.8,2.,4.8
1979-08-05 18:24:03.320 ,0,0,0.,4.8,2.,4.8,2.,4.8,1.,4.8
1979-08-05 18:24:08.120 ,0,0,0.,4.8,4.,4.8,2.,4.8,1.,4.8
1979-08-05 18:24:12.920 ,0,0,0.,4.8,3.,4.8,0.,4.8,2.,4.8
1979-08-05 18:24:17.720 ,0,0,0.,4.8,8.,4.8,0.,4.8,2.,4.8
1979-08-05 18:24:22.520 ,0,0,0.,4.8,6.,4.8,3.,4.8,1.,4.8
1979-08-05 18:24:27.320 ,0,0,0.,4.8,4.,4.8,2.,4.8,3.,4.8
1979-08-05 18:24:32.120 ,0,0,0.,4.8,6.,4.8,2.,4.8,3.,4.8
1979-08-05 18:24:36.920 ,0,0,0.,4.8,3.,4.8,1.,4.8,1.,4.8
1979-08-05 18:24:41.720 ,0,0,0.,4.8,2.,4.8,0.,4.8,3.,4.8
1979-08-05 18:24:46.520 ,1,0,0.,4.8,3.,4.8,1.,4.8,1.,4.8
1979-08-05 18:24:51.320 ,1,0,0.,4.8,6.,4.8,0.,4.8,0.,4.8
1979-08-05 18:24:56.120 ,1,0,0.,4.8,4.,4.8,1.,4.8,0.,4.8
1979-08-05 18:25:00.920 ,1,0,0.,4.8,4.,4.8,1.,4.8,1.,4.8
1979-08-05 18:25:05.720 ,1,0,0.,4.8,2.,4.8,2.,4.8,0.,4.8
1979-08-05 18:25:10.520 ,1,0,0.,4.8,5.,4.8,0.,4.8,1.,4.8
1979-08-05 18:25:15.320 ,1,0,0.,4.8,5.,4.8,4.,4.8,0.,4.8
1979-08-05 18:25:20.120 ,1,0,0.,4.8,6.,4.8,2.,4.8,2.,4.8
1979-08-05 18:25:24.920 ,1,0,0.,4.8,4.,4.8,1.,4.8,0.,4.8
1979-08-05 18:25:29.720 ,1,0,0.,4.8,6.,4.8,0.,4.8,0.,4.8
1979-08-05 18:25:34.520 ,2,0,0.,4.8,0.,4.8,1.,4.8,1.,4.8
1979-08-05 18:25:39.320 ,2,0,0.,4.8,4.,4.8,2.,4.8,0.,4.8
1979-08-05 18:25:44.120 ,2,0,,0,,0,,0,,0
1979-08-05 18:25:48.920 ,2,0,0.,4.8,2.,4.8,1.,4.8,2.,4.8
1979-08-05 18:25:53.720 ,2,0,0.,4.8,3.,4.8,0.,4.8,1.,4.8
1979-08-05 18:25:58.520 ,2,0,0.,4.8,6.,4.8,0.,4.8,0.,4.8
1979-08-05 18:26:03.320 ,2,0,0.,4.8,1.,4.8,2.,4.8,1.,4.8
1979-08-05 18:26:08.120 ,2,0,0.,4.8,2.,4.8,1.,4.8,0.,4.8
1979-08-05 18:26:12.920 ,2,0,0.,4.8,2.,4.8,0.,4.8,1.,4.8
1979-08-05 18:26:17.720 ,2,0,0.,4.8,0.,4.8,1.,4.8,1.,4.8
1979-08-05 18:26:22.520 ,3,0,0.,4.8,3.,4.8,2.,4.8,0.,4.8
1979-08-05 18:26:27.320 ,3,0,0.,4.8,2.,4.8,1.,4.8,1.,4.8
1979-08-05 18:26:32.120 ,3,0,0.,4.8,2.,4.8,1.,4.8,0.,4.8
1979-08-05 18:26:36.920 ,3,0,1.,4.8,2.,4.8,0.,4.8,0.,4.8
1979-08-05 18:26:41.720 ,3,0,0.,4.8,3.,4.8,2.,4.8,0.,4.8
1979-08-05 18:26:46.520 ,3,0,0.,4.8,0.,4.8,2.,4.8,0.,4.8
1979-08-05 18:26:51.320 ,3,0,0.,4.8,2.,4.8,1.,4.8,1.,4.8
1979-08-05 18:26:56.120 ,3,0,0.,4.8,0.,4.8,2.,4.8,0.,4.8
1979-08-05 18:27:00.920 ,3,0,0.,4.8,1.,4.8,0.,4.8,1.,4.8
1979-08-05 18:27:05.720 ,3,0,0.,4.8,1.,4.8,0.,4.8,1.,4.8
1979-08-05 18:27:10.520 ,4,0,0.,4.8,4.,4.8,2.,4.8,1.,4.8
1979-08-05 18:27:15.320 ,4,0,0.,4.8,0.,4.8,3.,4.8,0.,4.8
1979-08-05 18:27:20.120 ,4,0,0.,4.8,4.,4.8,1.,4.8,0.,4.8
1979-08-05 18:27:24.920 ,4,0,0.,4.8,3.,4.8,0.,4.8,0.,4.8
1979-08-05 18:27:29.720 ,4,0,0.,4.8,0.,4.8,0.,4.8,0.,4.8
1979-08-05 18:27:34.520 ,4,0,0.,4.8,2.,4.8,0.,4.8,1.,4.8
1979-08-05 18:27:39.320 ,4,0,0.,4.8,4.,4.8,1.,4.8,0.,4.8
1979-08-05 18:27:44.120 ,4,0,0.,4.8,1.,4.8,0.,4.8,0.,4.8
1979-08-05 18:27:48.920 ,4,0,0.,4.8,3.,4.8,0.,4.8,0.,4.8
1979-08-05 18:27:53.720 ,4,0,0.,4.8,3.,4.8,0.,4.8,0.,4.8
1979-08-05 18:27:58.520 ,5,0,0.,4.8,1.,4.8,0.,4.8,1.,4.8
1979-08-05 18:28:03.320 ,5,0,0.,4.8,3.,4.8,0.,4.8,1.,4.8
1979-08-05 18:28:08.120 ,5,0,0.,4.8,2.,4.8,0.,4.8,0.,4.8
1979-08-05 18:28:12.920 ,5,0,0.,4.8,3.,4.8,2.,4.8,1.,4.8
1979-08-05 18:28:17.720 ,5,0,0.,4.8,3.,4.8,1.,4.8,0.,4.8
1979-08-05 18:28:22.520 ,5,0,0.,4.8,4.,4.8,1.,4.8,0.,4.8
1979-08-05 18:28:27.320 ,5,0,0.,4.8,1.,4.8,1.,4.8,0.,4.8
1979-08-05 18:28:32.120 ,5,0,0.,4.8,0.,4.8,0.,4.8,0.,4.8
1979-08-05 18:28:36.920 ,5,0,0.,4.8,3.,4.8,2.,4.8,1.,4.8
1979-08-05 18:28:41.720 ,5,0,0.,4.8,0.,4.8,0.,4.8,0.,4.8
1979-08-05 18:28:46.520 ,6,0,0.,4.8,1.,4.8,1.,4.8,0.,4.8
1979-08-05 18:28:51.320 ,6,0,0.,4.8,3.,4.8,0.,4.8,0.,4.8
1979-08-05 18:28:56.120 ,6,0,0.,4.8,4.,4.8,0.,4.8,2.,4.8
1979-08-05 18:29:00.920 ,6,0,0.,4.8,3.,4.8,2.,4.8,0.,4.8
1979-08-05 18:29:05.720 ,6,0,0.,4.8,1.,4.8,0.,4.8,3.,4.8
1979-08-05 18:29:10.520 ,6,0,0.,4.8,4.,4.8,1.,4.8,1.,4.8
1979-08-05 18:29:15.320 ,6,0,0.,4.8,1.,4.8,2.,4.8,0.,4.8
1979-08-05 18:29:20.120 ,6,0,0.,4.8,4.,4.8,0.,4.8,1.,4.8
1979-08-05 18:29:24.920 ,6,0,0.,4.8,1.,4.8,1.,4.8,1.,4.8
1979-08-05 18:29:29.720 ,6,0,0.,4.8,2.,4.8,3.,4.8,1.,4.8
1979-08-05 18:29:34.520 ,7,0,0.,4.8,1.,4.8,1.,4.8,0.,4.8
1979-08-05 18:29:39.320 ,7,0,0.,4.8,3.,4.8,0.,4.8,2.,4.8
1979-08-05 18:29:44.120 ,7,0,0.,4.8,1.,4.8,0.,4.8,0.,4.8
1979-08-05 18:29:48.920 ,7,0,0.,4.8,2.,4.8,0.,4.8,0.,4.8
1979-08-05 18:29:53.720 ,7,0,0.,4.8,0.,4.8,0.,4.8,0.,4.8
1979-08-05 18:29:58.520 ,7,0,0.,4.8,1.,4.8,0.,4.8,0.,4.8
1979-08-05 18:30:03.320 ,7,0,0.,4.8,0.,4.8,0.,4.8,0.,4.8
1979-08-05 18:30:08.120 ,7,0,0.,4.8,0.,4.8,0.,4.8,0.,4.8
1979-08-05 18:30:12.920 ,7,0,0.,4.8,2.,4.8,1.,4.8,0.,4.8
1979-08-05 18:30:17.720 ,7,0,0.,4.8,0.,4.8,0.,4.8,0.,4.8
1979-08-05 18:30:22.520 ,7,0,0.,4.8,0.,4.8,0.,4.8,0.,4.8
1979-08-05 18:30:27.320 ,7,0,0.,4.8,0.,4.8,0.,4.8,0.,4.8
1979-08-05 18:30:32.120 ,7,0,0.,4.8,1.,4.8,0.,4.8,0.,4.8
1979-08-05 18:30:36.920 ,7,0,0.,4.8,1.,4.8,1.,4.8,1.,4.8
1979-08-05 18:30:41.720 ,7,0,0.,4.8,0.,4.8,0.,4.8,0.,4.8
1979-08-05 18:30:46.520 ,0,0,0.,4.8,0.,4.8,0.,4.8,0.,4.8
1979-08-05 18:30:51.320 ,0,0,0.,4.8,1.,4.8,0.,4.8,0.,4.8
1979-08-05 18:30:56.120 ,0,0,0.,4.8,0.,4.8,0.,4.8,0.,4.8
1979-08-05 18:31:00.920 ,0,0,0.,4.8,0.,4.8,0.,4.8,0.,4.8
1979-08-05 18:31:05.720 ,0,0,0.,4.8,0.,4.8,0.,4.8,0.,4.8
1979-08-05 18:31:10.520 ,6,0,0.,4.8,0.,4.8,1.,4.8,0.,4.8
1979-08-05 18:31:15.320 ,6,0,0.,4.8,2.,4.8,0.,4.8,0.,4.8
1979-08-05 18:31:20.120 ,6,0,0.,4.8,2.,4.8,1.,4.8,2.,4.8
1979-08-05 18:31:24.920 ,6,0,0.,4.8,6.,4.8,2.,4.8,3.,4.8
1979-08-05 18:31:29.720 ,6,0,0.,4.8,5.,4.8,0.,4.8,3.,4.8
1979-08-05 18:31:34.520 ,6,0,0.,4.8,9.,4.8,0.,4.8,0.,4.8
1979-08-05 18:31:39.320 ,6,0,0.,4.8,4.,4.8,2.,4.8,0.,4.8
1979-08-05 18:31:44.120 ,6,0,0.,4.8,3.,4.8,0.,4.8,1.,4.8
1979-08-05 18:31:48.920 ,6,0,0.,4.8,6.,4.8,0.,4.8,1.,4.8
1979-08-05 18:31:53.720 ,6,0,0.,4.8,5.,4.8,3.,4.8,0.,4.8
1979-08-05 18:31:58.520 ,5,0,0.,4.8,1.,4.8,2.,4.8,1.,4.8
1979-08-05 18:32:03.320 ,5,0,0.,4.8,3.,4.8,1.,4.8,1.,4.8
1979-08-05 18:32:08.120 ,5,0,0.,4.8,2.,4.8,0.,4.8,1.,4.8
1979-08-05 18:32:12.920 ,5,0,0.,4.8,2.,4.8,2.,4.8,1.,4.8
1979-08-05 18:32:17.720 ,5,0,0.,4.8,0.,4.8,0.,4.8,1.,4.8
1979-08-05 18:32:22.520 ,5,0,0.,4.8,2.,4.8,2.,4.8,0.,4.8
1979-08-05 18:32:27.320 ,5,0,0.,4.8,0.,4.8,1.,4.8,0.,4.8
1979-08-05 18:32:32.120 ,5,0,0.,4.8,1.,4.8,1.,4.8,0.,4.8
1979-08-05 18:32:36.920 ,5,0,0.,4.8,2.,4.8,1.,4.8,0.,4.8
1979-08-05 18:32:41.720 ,5,0,0.,4.8,2.,4.8,2.,4.8,0.,4.8
1979-08-05 18:32:46.520 ,4,0,0.,4.8,1.,4.8,2.,4.8,1.,4.8
1979-08-05 18:32:51.320 ,4,0,,0,,0,,0,,0
1979-08-05 18:32:56.120 ,4,0,0.,4.8,0.,4.8,2.,4.8,0.,4.8
1979-08-05 18:33:00.920 ,4,0,0.,4.8,3.,4.8,1.,4.8,0.,4.8
1979-08-05 18:33:05.720 ,4,0,0.,4.8,3.,4.8,0.,4.8,0.,4.8
1979-08-05 18:33:10.520 ,4,0,0.,4.8,0.,4.8,2.,4.8,0.,4.8
1979-08-05 18:33:15.320 ,4,0,0.,4.8,0.,4.8,0.,4.8,0.,4.8
1979-08-05 18:33:20.120 ,4,0,0.,4.8,3.,4.8,1.,4.8,1.,4.8
1979-08-05 18:33:24.920 ,4,0,0.,4.8,3.,4.8,0.,4.8,0.,4.8
1979-08-05 18:33:29.720 ,4,0,0.,4.8,0.,4.8,1.,4.8,1.,4.8
1979-08-05 18:33:34.520 ,3,0,0.,4.8,2.,4.8,0.,4.8,1.,4.8
1979-08-05 18:33:39.320 ,3,0,0.,4.8,0.,4.8,0.,4.8,0.,4.8
1979-08-05 18:33:44.120 ,3,0,0.,4.8,2.,4.8,0.,4.8,0.,4.8
1979-08-05 18:33:48.920 ,3,0,0.,4.8,1.,4.8,0.,4.8,0.,4.8
1979-08-05 18:33:53.720 ,3,0,0.,4.8,0.,4.8,1.,4.8,0.,4.8
1979-08-05 18:33:58.520 ,3,0,0.,4.8,3.,4.8,0.,4.8,0.,4.8
1979-08-05 18:34:03.320 ,3,0,0.,4.8,0.,4.8,0.,4.8,3.,4.8
1979-08-05 18:34:08.120 ,3,0,0.,4.8,3.,4.8,0.,4.8,1.,4.8
1979-08-05 18:34:12.920 ,3,0,0.,4.8,1.,4.8,0.,4.8,1.,4.8
1979-08-05 18:34:17.720 ,3,0,0.,4.8,1.,4.8,0.,4.8,0.,4.8
1979-08-05 18:34:22.520 ,2,0,0.,4.8,1.,4.8,0.,4.8,1.,4.8
1979-08-05 18:34:27.320 ,2,0,0.,4.8,0.,4.8,1.,4.8,2.,4.8
1979-08-05 18:34:32.120 ,2,0,0.,4.8,1.,4.8,1.,4.8,1.,4.8
1979-08-05 18:34:36.920 ,2,0,0.,4.8,0.,4.8,0.,4.8,1.,4.8
1979-08-05 18:34:41.720 ,2,0,0.,4.8,4.,4.8,1.,4.8,1.,4.8
1979-08-05 18:34:46.520 ,2,0,0.,4.8,2.,4.8,2.,4.8,1.,4.8
1979-08-05 18:34:51.320 ,2,0,0.,4.8,4.,4.8,0.,4.8,0.,4.8
1979-08-05 18:34:56.120 ,2,0,0.,4.8,3.,4.8,1.,4.8,1.,4.8
1979-08-05 18:35:00.920 ,2,0,0.,4.8,3.,4.8,0.,4.8,1.,4.8
1979-08-05 18:35:05.720 ,2,0,0.,4.8,1.,4.8,2.,4.8,1.,4.8
1979-08-05 18:35:10.520 ,1,0,0.,4.8,2.,4.8,1.,4.8,0.,4.8
1979-08-05 18:35:15.320 ,1,0,0.,4.8,0.,4.8,0.,4.8,1.,4.8
1979-08-05 18:35:20.120 ,1,0,0.,4.8,6.,4.8,1.,4.8,0.,4.8
1979-08-05 18:35:24.920 ,1,0,0.,4.8,3.,4.8,0.,4.8,0.,4.8
1979-08-05 18:35:29.720 ,1,0,0.,4.8,3.,4.8,1.,4.8,2.,4.8
1979-08-05 18:35:34.520 ,1,0,0.,4.8,6.,4.8,1.,4.8,0.,4.8
1979-08-05 18:35:39.320 ,1,0,0.,4.8,5.,4.8,3.,4.8,0.,4.8
1979-08-05 18:35:44.120 ,1,0,0.,4.8,2.,4.8,2.,4.8,0.,4.8
1979-08-05 18:35:48.920 ,1,0,0.,4.8,6.,4.8,1.,4.8,1.,4.8
1979-08-05 18:35:53.720 ,1,0,0.,4.8,7.,4.8,2.,4.8,2.,4.8
1979-08-05 18:35:58.520 ,0,0,0.,4.8,2.,4.8,1.,4.8,0.,4.8
1979-08-05 18:36:03.320 ,0,0,1.,4.8,6.,4.8,0.,4.8,1.,4.8
1979-08-05 18:36:08.120 ,0,0,0.,4.8,9.,4.8,4.,4.8,1.,4.8
1979-08-05 18:36:12.920 ,0,0,0.,4.8,10.,4.8,2.,4.8,1.,4.8
1979-08-05 18:36:17.720 ,0,0,0.,4.8,2.,4.8,1.,4.8,0.,4.8
1979-08-05 18:36:22.520 ,0,0,0.,4.8,8.,4.8,3.,4.8,0.,4.8
1979-08-05 18:36:27.320 ,0,0,0.,4.8,11.,4.8,0.,4.8,0.,4.8
1979-08-05 18:36:32.120 ,0,0,0.,4.8,2.,4.8,2.,4.8,0.,4.8
1979-08-05 18:36:36.920 ,0,0,0.,4.8,7.,4.8,2.,4.8,1.,4.8
1979-08-05 18:36:41.720 ,0,0,0.,4.8,5.,4.8,1.,4.8,0.,4.8
1979-08-05 18:36:46.520 ,0,0,0.,4.8,6.,4.8,1.,4.8,0.,4.8
1979-08-05 18:36:51.320 ,0,0,0.,4.8,11.,4.8,0.,4.8,1.,4.8
1979-08-05 18:36:56.120 ,0,0,0.,4.8,8.,4.8,2.,4.8,0.,4.8
1979-08-05 18:37:00.920 ,0,0,0.,4.8,7.,4.8,1.,4.8,1.,4.8
1979-08-05 18:37:05.720 ,0,0,0.,4.8,9.,4.8,1.,4.8,2.,4.8
1979-08-05 18:37:10.520 ,0,0,0.,4.8,2.,4.8,3.,4.8,0.,4.8
1979-08-05 18:37:15.320 ,0,0,0.,4.8,9.,4.8,1.,4.8,4.,4.8
1979-08-05 18:37:20.120 ,0,0,0.,4.8,7.,4.8,3.,4.8,1.,4.8
1979-08-05 18:37:24.920 ,0,0,0.,4.8,3.,4.8,2.,4.8,1.,4.8
1979-08-05 18:37:29.720 ,0,0,0.,4.8,6.,4.8,3.,4.8,1.,4.8
1979-08-05 18:37:34.520 ,1,0,0.,4.8,6.,4.8,2.,4.8,1.,4.8
1979-08-05 18:37:39.320 ,1,0,0.,4.8,6.,4.8,0.,4.8,1.,4.8
1979-08-05 18:37:44.120 ,1,0,0.,4.8,4.,4.8,1.,4.8,2.,4.8
1979-08-05 18:37:48.920 ,1,0,0.,4.8,7.,4.8,1.,4.8,0.,4.8